| time (UTC) | temp F | wind direction | speed MPH | gust MPH | rain 1hr in | rain 24hr in | rain mn in | humidity % | barometer mb |
| 20260505003816 | 71 | 88 | 1.0 | 6.0 | 0.00 | 0.00 | 0.00 | 31 | 1013.9 |
| 20260505003535 | 70 | 318 | 2.0 | 6.0 | 0.00 | 0.00 | 0.00 | 30 | 1014.0 |
| 20260505003511 | 70 | 88 | 2.0 | 6.0 | 0.00 | 0.00 | 0.00 | 30 | 1012.3 |
| 20260505003024 | 69 | 126 | 0.0 | 6.0 | 0.00 | 0.00 | 0.00 | 30 | 1012.4 |
| 20260505002808 | 70 | 139 | 2.0 | 6.0 | 0.00 | 0.00 | 0.00 | 31 | 1013.9 |
| 20260505002505 | 69 | 161 | 1.0 | 8.0 | 0.00 | 0.00 | 0.00 | 30 | 1012.3 |
| 20260505002307 | 70 | 325 | 2.0 | 8.0 | 0.00 | 0.00 | 0.00 | 30 | 1013.9 |
| 20260505002007 | 69 | 193 | 1.0 | 8.0 | 0.00 | 0.00 | 0.00 | 31 | 1012.3 |
| 20260505001509 | 69 | 233 | 2.0 | 9.0 | 0.00 | 0.00 | 0.00 | 30 | 1012.2 |
| 20260505001305 | 69 | 105 | 3.0 | 9.0 | 0.00 | 0.00 | 0.00 | 31 | 1013.7 |
| 20260505001004 | 69 | 329 | 1.0 | 10.0 | 0.00 | 0.00 | 0.00 | 30 | 1012.3 |
| 20260505000805 | 69 | 281 | 3.0 | 10.0 | 0.00 | 0.00 | 0.00 | 30 | 1013.9 |
| 20260505000504 | 69 | 209 | 2.0 | 10.0 | 0.00 | 0.00 | 0.00 | 31 | 1012.2 |
| 20260505000305 | 69 | 61 | 2.0 | 10.0 | 0.00 | 0.00 | 0.00 | 32 | 1014.0 |
| 20260505000023 | 69 | 319 | 2.0 | 6.0 | 0.00 | 0.00 | 0.00 | 31 | 1012.2 |
| 20260504235806 | 69 | 85 | 2.0 | 9.0 | 0.00 | 0.00 | 0.00 | 31 | 1013.9 |
| 20260504235507 | 69 | 234 | 1.0 | 9.0 | 0.00 | 0.00 | 0.00 | 31 | 1012.2 |
| 20260504235304 | 69 | 182 | 2.0 | 9.0 | 0.00 | 0.00 | 0.00 | 32 | 1013.9 |
| 20260504235008 | 68 | 225 | 2.0 | 9.0 | 0.00 | 0.00 | 0.00 | 31 | 1012.2 |
| 20260504234802 | 69 | 234 | 2.0 | 8.0 | 0.00 | 0.00 | 0.00 | 31 | 1013.9 |
| 20260504234518 | 69 | 241 | 1.0 | 8.0 | 0.00 | 0.00 | 0.00 | 31 | 1012.3 |
| 20260504234301 | 69 | 325 | 2.0 | 8.0 | 0.00 | 0.00 | 0.00 | 32 | 1013.9 |
| 20260504234006 | 69 | 288 | 2.0 | 6.0 | 0.00 | 0.00 | 0.00 | 30 | 1012.2 |
| 20260504233801 | 69 | 242 | 2.0 | 6.0 | 0.00 | 0.00 | 0.00 | 31 | 1013.9 |
| 20260504233506 | 69 | 296 | 0.0 | 6.0 | 0.00 | 0.00 | 0.00 | 31 | 1012.2 |
| 20260504233300 | 69 | 286 | 2.0 | 6.0 | 0.00 | 0.00 | 0.00 | 30 | 1013.9 |
| 20260504233026 | 69 | 239 | 2.0 | 12.0 | 0.00 | 0.00 | 0.00 | 32 | 1014.0 |
| 20260504233013 | 69 | 181 | 0.0 | 12.0 | 0.00 | 0.00 | 0.00 | 31 | 1012.3 |
| 20260504232520 | 69 | 275 | 2.0 | 12.0 | 0.00 | 0.00 | 0.00 | 32 | 1014.1 |
| 20260504232508 | 68 | 150 | 1.0 | 12.0 | 0.00 | 0.00 | 0.00 | 32 | 1012.2 |
| 20260504232010 | 69 | 290 | 3.0 | 12.0 | 0.00 | 0.00 | 0.00 | 30 | 1012.3 |
| 20260504231757 | 69 | 290 | 2.0 | 6.0 | 0.00 | 0.00 | 0.00 | 32 | 1014.0 |
| 20260504231526 | 69 | 9 | 1.0 | 6.0 | 0.00 | 0.00 | 0.00 | 31 | 1012.3 |
| 20260504231257 | 69 | 165 | 2.0 | 5.0 | 0.00 | 0.00 | 0.00 | 32 | 1013.9 |
| 20260504231022 | 69 | 24 | 3.0 | 9.0 | 0.00 | 0.00 | 0.00 | 32 | 1014.0 |
| 20260504231009 | 69 | 240 | 1.0 | 7.0 | 0.00 | 0.00 | 0.00 | 32 | 1012.3 |
| 20260504230508 | 68 | 290 | 2.0 | 9.0 | 0.00 | 0.00 | 0.00 | 31 | 1012.3 |
| 20260504230255 | 69 | 269 | 2.0 | 9.0 | 0.00 | 0.00 | 0.00 | 32 | 1014.0 |
| 20260504230028 | 69 | 109 | 2.0 | 9.0 | 0.00 | 0.00 | 0.00 | 32 | 1012.3 |
| 20260504230016 | 69 | 112 | 2.0 | 9.0 | 0.00 | 0.00 | 0.00 | 30 | 1014.0 |
| 20260504225506 | 69 | 186 | 1.0 | 9.0 | 0.00 | 0.00 | 0.00 | 31 | 1012.4 |
| 20260504225249 | 69 | 121 | 2.0 | 9.0 | 0.00 | 0.00 | 0.00 | 31 | 1014.0 |
| 20260504225009 | 69 | 276 | 2.0 | 8.0 | 0.00 | 0.00 | 0.00 | 30 | 1012.4 |
| 20260504225003 | 69 | 299 | 2.0 | 5.0 | 0.00 | 0.00 | 0.00 | 30 | 1014.0 |
| 20260504224519 | 69 | 308 | 0.0 | 7.0 | 0.00 | 0.00 | 0.00 | 31 | 1012.5 |
| 20260504224242 | 69 | 304 | 2.0 | 7.0 | 0.00 | 0.00 | 0.00 | 30 | 1014.0 |
| 20260504224006 | 69 | 17 | 2.0 | 9.0 | 0.00 | 0.00 | 0.00 | 30 | 1012.5 |
| 20260504223742 | 69 | 116 | 2.0 | 9.0 | 0.00 | 0.00 | 0.00 | 30 | 1014.1 |
| 20260504223507 | 69 | 197 | 1.0 | 9.0 | 0.00 | 0.00 | 0.00 | 29 | 1012.5 |
| 20260504223241 | 69 | 232 | 2.0 | 9.0 | 0.00 | 0.00 | 0.00 | 29 | 1014.1 |
| 20260504223022 | 69 | 261 | 2.0 | 9.0 | 0.00 | 0.00 | 0.00 | 29 | 1012.5 |
| 20260504223003 | 69 | 321 | 1.0 | 7.0 | 0.00 | 0.00 | 0.00 | 30 | 1014.2 |
| 20260504222506 | 69 | 180 | 1.0 | 7.0 | 0.00 | 0.00 | 0.00 | 31 | 1012.5 |
| 20260504222458 | 69 | 118 | 2.0 | 6.0 | 0.00 | 0.00 | 0.00 | 32 | 1014.2 |
| 20260504222006 | 69 | 53 | 0.0 | 6.0 | 0.00 | 0.00 | 0.00 | 29 | 1012.6 |
| 20260504221738 | 69 | 113 | 2.0 | 10.0 | 0.00 | 0.00 | 0.00 | 30 | 1014.1 |
| 20260504221519 | 69 | 117 | 2.0 | 10.0 | 0.00 | 0.00 | 0.00 | 29 | 1012.6 |
| 20260504221239 | 69 | 193 | 2.0 | 10.0 | 0.00 | 0.00 | 0.00 | 30 | 1014.0 |
| 20260504221010 | 69 | 265 | 4.0 | 10.0 | 0.00 | 0.00 | 0.00 | 27 | 1012.4 |
| 20260504220739 | 69 | 144 | 2.0 | 7.0 | 0.00 | 0.00 | 0.00 | 27 | 1014.1 |
| 20260504220512 | 69 | 283 | 2.0 | 7.0 | 0.00 | 0.00 | 0.00 | 30 | 1012.5 |
| 20260504220240 | 69 | 132 | 2.0 | 6.0 | 0.00 | 0.00 | 0.00 | 31 | 1014.1 |
| 20260504220029 | 69 | 119 | 2.0 | 14.0 | 0.00 | 0.00 | 0.00 | 30 | 1012.5 |
| 20260504215739 | 70 | 267 | 3.0 | 14.0 | 0.00 | 0.00 | 0.00 | 29 | 1014.2 |
| 20260504215508 | 69 | 210 | 2.0 | 14.0 | 0.00 | 0.00 | 0.00 | 30 | 1012.5 |
| 20260504215239 | 70 | 214 | 3.0 | 14.0 | 0.00 | 0.00 | 0.00 | 29 | 1014.2 |
| 20260504215012 | 70 | 325 | 4.0 | 14.0 | 0.00 | 0.00 | 0.00 | 28 | 1012.6 |
| 20260504214739 | 70 | 337 | 2.0 | 7.0 | 0.00 | 0.00 | 0.00 | 30 | 1014.3 |
| 20260504214528 | 70 | 294 | 2.0 | 10.0 | 0.00 | 0.00 | 0.00 | 29 | 1012.8 |
| 20260504214239 | 70 | 127 | 2.0 | 10.0 | 0.00 | 0.00 | 0.00 | 26 | 1014.4 |
| 20260504214010 | 70 | 299 | 2.0 | 10.0 | 0.00 | 0.00 | 0.00 | 27 | 1012.7 |
| 20260504213739 | 71 | 114 | 2.0 | 10.0 | 0.00 | 0.00 | 0.00 | 27 | 1014.4 |
| 20260504213506 | 70 | 153 | 0.0 | 7.0 | 0.00 | 0.00 | 0.00 | 28 | 1012.8 |
| 20260504213239 | 70 | 328 | 2.0 | 7.0 | 0.00 | 0.00 | 0.00 | 29 | 1014.3 |
| 20260504213022 | 70 | 317 | 3.0 | 9.0 | 0.00 | 0.00 | 0.00 | 26 | 1013.1 |
| 20260504212739 | 71 | 315 | 3.0 | 9.0 | 0.00 | 0.00 | 0.00 | 28 | 1014.4 |
| 20260504212509 | 70 | 42 | 1.0 | 11.0 | 0.00 | 0.00 | 0.00 | 29 | 1012.7 |
| 20260504212239 | 70 | 0 | 4.0 | 11.0 | 0.00 | 0.00 | 0.00 | 29 | 1014.3 |
| 20260504212010 | 70 | 191 | 3.0 | 11.0 | 0.00 | 0.00 | 0.00 | 30 | 1012.8 |
| 20260504211530 | 71 | 281 | 1.0 | 8.0 | 0.00 | 0.00 | 0.00 | 27 | 1012.8 |
| 20260504211238 | 71 | 92 | 2.0 | 8.0 | 0.00 | 0.00 | 0.00 | 28 | 1014.4 |
| 20260504211007 | 71 | 348 | 2.0 | 8.0 | 0.00 | 0.00 | 0.00 | 25 | 1012.9 |
| 20260504210739 | 72 | 104 | 2.0 | 8.0 | 0.00 | 0.00 | 0.00 | 29 | 1014.5 |
| 20260504210506 | 71 | 117 | 2.0 | 8.0 | 0.00 | 0.00 | 0.00 | 31 | 1012.9 |
| 20260504210239 | 71 | 217 | 2.0 | 6.0 | 0.00 | 0.00 | 0.00 | 31 | 1014.5 |
| 20260504210026 | 70 | 264 | 1.0 | 6.0 | 0.00 | 0.00 | 0.00 | 28 | 1012.9 |
| 20260504210005 | 71 | 279 | 2.0 | 6.0 | 0.00 | 0.00 | 0.00 | 29 | 1014.5 |
| 20260504205514 | 70 | 187 | 1.0 | 7.0 | 0.00 | 0.00 | 0.00 | 29 | 1013.0 |
| 20260504205238 | 70 | 256 | 2.0 | 7.0 | 0.00 | 0.00 | 0.00 | 30 | 1014.7 |
| 20260504205007 | 70 | 127 | 2.0 | 9.0 | 0.00 | 0.00 | 0.00 | 29 | 1013.0 |
| 20260504204737 | 70 | 269 | 3.0 | 9.0 | 0.00 | 0.00 | 0.00 | 29 | 1014.7 |
| 20260504204527 | 69 | 188 | 1.0 | 9.0 | 0.00 | 0.00 | 0.00 | 29 | 1013.0 |
| 20260504204237 | 69 | 274 | 3.0 | 9.0 | 0.00 | 0.00 | 0.00 | 29 | 1014.8 |
| 20260504204009 | 69 | 184 | 2.0 | 11.0 | 0.00 | 0.00 | 0.00 | 28 | 1013.1 |
| 20260504203737 | 69 | 274 | 3.0 | 11.0 | 0.00 | 0.00 | 0.00 | 30 | 1014.7 |
| 20260504203503 | 69 | 311 | 1.0 | 11.0 | 0.00 | 0.00 | 0.00 | 29 | 1013.1 |
| 20260504203237 | 70 | 267 | 3.0 | 11.0 | 0.00 | 0.00 | 0.00 | 29 | 1014.7 |
| 20260504203006 | 69 | 213 | 1.0 | 10.0 | 0.00 | 0.00 | 0.00 | 29 | 1013.2 |
| 20260504202736 | 70 | 229 | 2.0 | 10.0 | 0.00 | 0.00 | 0.00 | 29 | 1014.7 |
| 20260504202502 | 70 | 323 | 3.0 | 10.0 | 0.00 | 0.00 | 0.00 | 28 | 1013.1 |
| 20260504202230 | 70 | 284 | 2.0 | 8.0 | 0.00 | 0.00 | 0.00 | 30 | 1014.8 |
| 20260504202004 | 70 | 94 | 1.0 | 6.0 | 0.00 | 0.00 | 0.00 | 32 | 1013.1 |
| 20260504201724 | 70 | 98 | 2.0 | 6.0 | 0.00 | 0.00 | 0.00 | 31 | 1014.8 |
| 20260504201504 | 70 | 304 | 1.0 | 10.0 | 0.00 | 0.00 | 0.00 | 29 | 1013.1 |
| 20260504201219 | 70 | 232 | 2.0 | 10.0 | 0.00 | 0.00 | 0.00 | 30 | 1014.8 |
| 20260504201004 | 69 | 243 | 2.0 | 10.0 | 0.00 | 0.00 | 0.00 | 31 | 1013.2 |
| 20260504200713 | 69 | 315 | 2.0 | 10.0 | 0.00 | 0.00 | 0.00 | 30 | 1014.8 |
| 20260504200503 | 69 | 265 | 0.0 | 7.0 | 0.00 | 0.00 | 0.00 | 33 | 1013.3 |
| 20260504200206 | 69 | 316 | 2.0 | 8.0 | 0.00 | 0.00 | 0.00 | 33 | 1014.8 |
| 20260504200004 | 68 | 146 | 1.0 | 8.0 | 0.00 | 0.00 | 0.00 | 33 | 1013.3 |
| 20260504195923 | 68 | 243 | 3.0 | 13.0 | 0.00 | 0.00 | 0.00 | 31 | 1014.7 |
| 20260504195502 | 68 | 261 | 3.0 | 13.0 | 0.00 | 0.00 | 0.00 | 31 | 1013.3 |
| 20260504195155 | 68 | 321 | 3.0 | 13.0 | 0.00 | 0.00 | 0.00 | 31 | 1014.9 |
| 20260504195003 | 68 | 315 | 5.0 | 13.0 | 0.00 | 0.00 | 0.00 | 30 | 1013.4 |
| 20260504194653 | 69 | 320 | 2.0 | 11.0 | 0.00 | 0.00 | 0.00 | 31 | 1014.8 |
| 20260504194507 | 69 | 239 | 2.0 | 11.0 | 0.00 | 0.00 | 0.00 | 31 | 1013.4 |
| 20260504194153 | 69 | 242 | 2.0 | 9.0 | 0.00 | 0.00 | 0.00 | 32 | 1015.0 |
| 20260504194003 | 69 | 125 | 0.0 | 9.0 | 0.00 | 0.00 | 0.00 | 33 | 1013.3 |
| 20260504193652 | 69 | 63 | 2.0 | 9.0 | 0.00 | 0.00 | 0.00 | 32 | 1015.0 |
| 20260504193503 | 69 | 282 | 1.0 | 9.0 | 0.00 | 0.00 | 0.00 | 32 | 1013.4 |
| 20260504193009 | 69 | 115 | 2.0 | 7.0 | 0.00 | 0.00 | 0.00 | 32 | 1013.5 |
| 20260504192913 | 70 | 159 | 2.0 | 6.0 | 0.00 | 0.00 | 0.00 | 31 | 1014.9 |
| 20260504192506 | 70 | 188 | 2.0 | 6.0 | 0.00 | 0.00 | 0.00 | 31 | 1013.6 |
| 20260504192410 | 70 | 277 | 1.0 | 6.0 | 0.00 | 0.00 | 0.00 | 32 | 1015.0 |
| 20260504192002 | 70 | 130 | 0.0 | 5.0 | 0.00 | 0.00 | 0.00 | 31 | 1013.4 |
| 20260504191647 | 70 | 24 | 1.0 | 4.0 | 0.00 | 0.00 | 0.00 | 34 | 1015.0 |
| 20260504191504 | 69 | 88 | 1.0 | 4.0 | 0.00 | 0.00 | 0.00 | 33 | 1013.5 |
| 20260504191415 | 69 | 9 | 1.0 | 6.0 | 0.00 | 0.00 | 0.00 | 33 | 1015.0 |
| 20260504191002 | 69 | 91 | 1.0 | 7.0 | 0.00 | 0.00 | 0.00 | 34 | 1013.5 |
| 20260504190647 | 69 | 111 | 2.0 | 7.0 | 0.00 | 0.00 | 0.00 | 35 | 1015.0 |
| 20260504190504 | 68 | 101 | 1.0 | 7.0 | 0.00 | 0.00 | 0.00 | 33 | 1013.5 |
| 20260504190146 | 68 | 132 | 2.0 | 7.0 | 0.00 | 0.00 | 0.00 | 33 | 1014.9 |
| 20260504190004 | 68 | 204 | 2.0 | 9.0 | 0.00 | 0.00 | 0.00 | 34 | 1013.5 |
| 20260504185647 | 67 | 255 | 2.0 | 9.0 | 0.00 | 0.00 | 0.00 | 35 | 1015.0 |
| 20260504185503 | 67 | 71 | 0.0 | 9.0 | 0.00 | 0.00 | 0.00 | 37 | 1013.6 |
| 20260504185146 | 67 | 141 | 2.0 | 9.0 | 0.00 | 0.00 | 0.00 | 34 | 1014.9 |
| 20260504185006 | 67 | 234 | 2.0 | 9.0 | 0.00 | 0.00 | 0.00 | 33 | 1013.6 |
| 20260504184647 | 68 | 197 | 2.0 | 8.0 | 0.00 | 0.00 | 0.00 | 34 | 1015.0 |
| 20260504184504 | 67 | 294 | 1.0 | 5.0 | 0.00 | 0.00 | 0.00 | 34 | 1013.6 |
| 20260504184409 | 67 | 73 | 2.0 | 6.0 | 0.00 | 0.00 | 0.00 | 35 | 1015.0 |
| 20260504184007 | 66 | 184 | 2.0 | 7.0 | 0.00 | 0.00 | 0.00 | 35 | 1013.6 |
| 20260504183642 | 67 | 187 | 2.0 | 7.0 | 0.00 | 0.00 | 0.00 | 34 | 1015.1 |
| 20260504183504 | 66 | 236 | 2.0 | 7.0 | 0.00 | 0.00 | 0.00 | 34 | 1013.6 |
| 20260504183143 | 67 | 175 | 3.0 | 13.0 | 0.00 | 0.00 | 0.00 | 35 | 1015.1 |
| 20260504183011 | 66 | 229 | 1.0 | 13.0 | 0.00 | 0.00 | 0.00 | 35 | 1013.6 |
| 20260504182641 | 66 | 86 | 3.0 | 13.0 | 0.00 | 0.00 | 0.00 | 36 | 1015.0 |
| 20260504182503 | 66 | 259 | 5.0 | 13.0 | 0.00 | 0.00 | 0.00 | 34 | 1013.6 |
| 20260504182406 | 66 | 321 | 3.0 | 10.0 | 0.00 | 0.00 | 0.00 | 35 | 1015.0 |
| 20260504182004 | 65 | 236 | 2.0 | 10.0 | 0.00 | 0.00 | 0.00 | 36 | 1013.5 |
| 20260504181634 | 65 | 279 | 3.0 | 10.0 | 0.00 | 0.00 | 0.00 | 35 | 1015.0 |
| 20260504181523 | 65 | 241 | 3.0 | 9.0 | 0.00 | 0.00 | 0.00 | 34 | 1013.4 |
| 20260504181129 | 66 | 289 | 2.0 | 9.0 | 0.00 | 0.00 | 0.00 | 35 | 1014.9 |
| 20260504181002 | 65 | 265 | 2.0 | 9.0 | 0.00 | 0.00 | 0.00 | 36 | 1013.5 |
| 20260504180622 | 66 | 265 | 2.0 | 8.0 | 0.00 | 0.00 | 0.00 | 35 | 1014.9 |
| 20260504180504 | 65 | 284 | 2.0 | 8.0 | 0.00 | 0.00 | 0.00 | 35 | 1013.4 |
| 20260504180116 | 65 | 350 | 2.0 | 8.0 | 0.00 | 0.00 | 0.00 | 37 | 1014.9 |
| 20260504180005 | 65 | 316 | 2.0 | 8.0 | 0.00 | 0.00 | 0.00 | 36 | 1013.5 |
| 20260504175610 | 65 | 255 | 2.0 | 8.0 | 0.00 | 0.00 | 0.00 | 36 | 1014.8 |
| 20260504175504 | 65 | 265 | 2.0 | 8.0 | 0.00 | 0.00 | 0.00 | 35 | 1013.4 |
| 20260504175104 | 65 | 208 | 3.0 | 10.0 | 0.00 | 0.00 | 0.00 | 37 | 1014.8 |
| 20260504175003 | 64 | 312 | 3.0 | 10.0 | 0.00 | 0.00 | 0.00 | 36 | 1013.5 |
| 20260504174558 | 65 | 277 | 3.0 | 10.0 | 0.00 | 0.00 | 0.00 | 36 | 1014.8 |
| 20260504174504 | 64 | 239 | 3.0 | 10.0 | 0.00 | 0.00 | 0.00 | 35 | 1013.4 |
| 20260504174052 | 65 | 273 | 2.0 | 7.0 | 0.00 | 0.00 | 0.00 | 36 | 1014.8 |
| 20260504174003 | 65 | 239 | 2.0 | 7.0 | 0.00 | 0.00 | 0.00 | 35 | 1013.5 |
| 20260504173809 | 65 | 314 | 2.0 | 7.0 | 0.00 | 0.00 | 0.00 | 38 | 1014.8 |
| 20260504173504 | 65 | 203 | 0.0 | 7.0 | 0.00 | 0.00 | 0.00 | 37 | 1013.5 |
| 20260504173040 | 65 | 300 | 3.0 | 8.0 | 0.00 | 0.00 | 0.00 | 37 | 1015.2 |
| 20260504173004 | 64 | 252 | 1.0 | 9.0 | 0.00 | 0.00 | 0.00 | 36 | 1013.5 |
| 20260504172534 | 64 | 272 | 3.0 | 9.0 | 0.00 | 0.00 | 0.00 | 38 | 1015.1 |
| 20260504172504 | 63 | 257 | 2.0 | 9.0 | 0.00 | 0.00 | 0.00 | 37 | 1013.6 |
| 20260504172028 | 64 | 304 | 3.0 | 11.0 | 0.00 | 0.00 | 0.00 | 37 | 1015.2 |
| 20260504172005 | 63 | 263 | 1.0 | 11.0 | 0.00 | 0.00 | 0.00 | 37 | 1013.6 |
| 20260504171522 | 63 | 262 | 4.0 | 11.0 | 0.00 | 0.00 | 0.00 | 38 | 1015.1 |
| 20260504171509 | 63 | 262 | 2.0 | 11.0 | 0.00 | 0.00 | 0.00 | 37 | 1013.5 |
| 20260504171016 | 63 | 276 | 4.0 | 12.0 | 0.00 | 0.00 | 0.00 | 38 | 1015.1 |
| 20260504171006 | 63 | 282 | 4.0 | 12.0 | 0.00 | 0.00 | 0.00 | 37 | 1013.6 |
| 20260504170510 | 64 | 250 | 4.0 | 12.0 | 0.00 | 0.00 | 0.00 | 37 | 1015.1 |
| 20260504170505 | 63 | 263 | 2.0 | 12.0 | 0.00 | 0.00 | 0.00 | 36 | 1013.6 |
| 20260504170227 | 63 | 277 | 3.0 | 11.0 | 0.00 | 0.00 | 0.00 | 37 | 1015.1 |
| 20260504160358 | 61 | 330 | 2.0 | 10.0 | 0.00 | 0.00 | 0.00 | 38 | 1015.2 |
| 20260504151003 | 57 | 281 | 0.0 | 4.0 | 0.00 | 0.00 | 0.00 | 44 | 1013.6 |
| 20260504150752 | 57 | 281 | 1.0 | 4.0 | 0.00 | 0.00 | 0.00 | 44 | 1015.1 |
| 20260504150503 | 57 | 282 | 0.0 | 4.0 | 0.00 | 0.00 | 0.00 | 44 | 1013.6 |
| 20260504150246 | 57 | 283 | 1.0 | 4.0 | 0.00 | 0.00 | 0.00 | 44 | 1015.1 |
| 20260504141146 | 49 | 275 | 0.0 | 0.0 | 0.00 | 0.00 | 0.00 | 59 | 1014.8 |
| 20260504141010 | 48 | 275 | 0.0 | 0.0 | 0.00 | 0.00 | 0.00 | 59 | 1013.5 |
| 20260504140640 | 49 | 275 | 0.0 | 0.0 | 0.00 | 0.00 | 0.00 | 59 | 1014.9 |
| 20260504140503 | 48 | 275 | 0.0 | 0.0 | 0.00 | 0.00 | 0.00 | 60 | 1013.6 |
| 20260504140134 | 48 | 275 | 0.0 | 0.0 | 0.00 | 0.00 | 0.00 | 58 | 1014.9 |
| 20260504130615 | 46 | 292 | 0.0 | 0.0 | 0.00 | 0.00 | 0.00 | 59 | 1014.7 |
| 20260504130506 | 46 | 292 | 0.0 | 0.0 | 0.00 | 0.00 | 0.00 | 58 | 1013.4 |
| 20260504130114 | 46 | 292 | 0.0 | 0.0 | 0.00 | 0.00 | 0.00 | 60 | 1014.8 |
| 20260504120107 | 47 | 292 | 1.0 | 3.0 | 0.00 | 0.00 | 0.00 | 56 | 1014.7 |
| 20260504110558 | 48 | 312 | 1.0 | 4.0 | 0.00 | 0.00 | 0.00 | 58 | 1014.5 |
| 20260504110502 | 47 | 312 | 0.0 | 4.0 | 0.00 | 0.00 | 0.00 | 56 | 1013.1 |
| 20260504100549 | 48 | 298 | 1.0 | 3.0 | 0.00 | 0.00 | 0.00 | 57 | 1014.7 |
| 20260504100507 | 47 | 298 | 1.0 | 3.0 | 0.00 | 0.00 | 0.00 | 57 | 1013.2 |
| 20260504082003 | 51 | 306 | 1.0 | 4.0 | 0.00 | 0.00 | 0.00 | 49 | 1013.6 |
| 20260504081855 | 51 | 306 | 1.0 | 4.0 | 0.00 | 0.00 | 0.00 | 51 | 1015.0 |
| 20260504081511 | 51 | 284 | 0.0 | 4.0 | 0.00 | 0.00 | 0.00 | 49 | 1013.6 |
| 20260504081349 | 52 | 300 | 0.0 | 0.0 | 0.00 | 0.00 | 0.00 | 50 | 1015.0 |
| 20260504081005 | 51 | 301 | 0.0 | 0.0 | 0.00 | 0.00 | 0.00 | 49 | 1013.6 |
| 20260504080844 | 52 | 296 | 0.0 | 0.0 | 0.00 | 0.00 | 0.00 | 48 | 1014.9 |
| 20260504080506 | 52 | 296 | 0.0 | 0.0 | 0.00 | 0.00 | 0.00 | 47 | 1013.5 |
| 20260504080347 | 52 | 296 | 0.0 | 0.0 | 0.00 | 0.00 | 0.00 | 48 | 1014.8 |
| 20260504060216 | 61 | 92 | 1.0 | 5.0 | 0.00 | 0.00 | 0.00 | 37 | 1015.3 |
| 20260504050507 | 59 | 240 | 0.0 | 2.0 | 0.00 | 0.00 | 0.00 | 39 | 1014.2 |
| 20260504050208 | 60 | 161 | 0.0 | 2.0 | 0.00 | 0.00 | 0.00 | 39 | 1015.8 |
| 20260504045708 | 60 | 154 | 0.0 | 4.0 | 0.00 | 0.00 | 0.00 | 40 | 1015.8 |
| 20260504045510 | 59 | 154 | 0.0 | 5.0 | 0.00 | 0.00 | 0.00 | 39 | 1014.2 |
| 20260504045207 | 60 | 154 | 0.0 | 5.0 | 0.00 | 0.00 | 0.00 | 41 | 1015.8 |
| 20260504045007 | 59 | 200 | 0.0 | 5.0 | 0.00 | 0.00 | 0.00 | 39 | 1014.2 |
| 20260504044708 | 60 | 200 | 1.0 | 5.0 | 0.00 | 0.00 | 0.00 | 41 | 1015.9 |
| 20260504044526 | 59 | 284 | 0.0 | 3.0 | 0.00 | 0.00 | 0.00 | 40 | 1014.2 |
| 20260504044208 | 59 | 319 | 1.0 | 3.0 | 0.00 | 0.00 | 0.00 | 41 | 1015.8 |
| 20260504044009 | 59 | 319 | 0.0 | 7.0 | 0.00 | 0.00 | 0.00 | 41 | 1014.2 |
| 20260504043928 | 58 | 329 | 1.0 | 7.0 | 0.00 | 0.00 | 0.00 | 41 | 1015.7 |
| 20260504043503 | 58 | 327 | 0.0 | 7.0 | 0.00 | 0.00 | 0.00 | 42 | 1014.2 |
| 20260504043207 | 57 | 133 | 1.0 | 7.0 | 0.00 | 0.00 | 0.00 | 43 | 1015.7 |
| 20260504043015 | 57 | 126 | 0.0 | 4.0 | 0.00 | 0.00 | 0.00 | 43 | 1014.0 |
| 20260504042708 | 57 | 130 | 1.0 | 4.0 | 0.00 | 0.00 | 0.00 | 46 | 1015.6 |
| 20260504042507 | 56 | 111 | 1.0 | 4.0 | 0.00 | 0.00 | 0.00 | 44 | 1014.0 |
| 20260504042201 | 56 | 157 | 0.0 | 5.0 | 0.00 | 0.00 | 0.00 | 47 | 1015.6 |
| 20260504042006 | 55 | 338 | 0.0 | 5.0 | 0.00 | 0.00 | 0.00 | 46 | 1014.1 |
| 20260504041655 | 56 | 342 | 0.0 | 5.0 | 0.00 | 0.00 | 0.00 | 47 | 1015.7 |
| 20260504041519 | 55 | 342 | 1.0 | 5.0 | 0.00 | 0.00 | 0.00 | 46 | 1014.1 |
| 20260504041005 | 55 | 173 | 0.0 | 0.0 | 0.00 | 0.00 | 0.00 | 48 | 1014.0 |
| 20260504040644 | 55 | 173 | 0.0 | 0.0 | 0.00 | 0.00 | 0.00 | 49 | 1015.7 |
| 20260504040507 | 55 | 173 | 0.0 | 0.0 | 0.00 | 0.00 | 0.00 | 48 | 1014.1 |
| 20260504040138 | 55 | 173 | 0.0 | 0.0 | 0.00 | 0.00 | 0.00 | 49 | 1015.6 |
| 20260504040027 | 55 | 173 | 0.0 | 0.0 | 0.00 | 0.00 | 0.00 | 48 | 1014.0 |
| 20260504035632 | 56 | 173 | 0.0 | 0.0 | 0.00 | 0.00 | 0.00 | 48 | 1015.6 |
| 20260504035503 | 56 | 173 | 0.0 | 0.0 | 0.00 | 0.00 | 0.00 | 49 | 1014.0 |
| 20260504035125 | 56 | 173 | 0.0 | 1.0 | 0.00 | 0.00 | 0.00 | 48 | 1015.6 |
| 20260504035005 | 56 | 173 | 0.0 | 2.0 | 0.00 | 0.00 | 0.00 | 46 | 1014.0 |
| 20260504034618 | 57 | 173 | 0.0 | 2.0 | 0.00 | 0.00 | 0.00 | 47 | 1015.6 |
| 20260504034516 | 57 | 173 | 0.0 | 2.0 | 0.00 | 0.00 | 0.00 | 47 | 1014.0 |
| 20260504034111 | 58 | 173 | 0.0 | 2.0 | 0.00 | 0.00 | 0.00 | 47 | 1015.6 |
| 20260504034002 | 57 | 173 | 0.0 | 2.0 | 0.00 | 0.00 | 0.00 | 46 | 1014.1 |
| 20260504033605 | 58 | 173 | 0.0 | 2.0 | 0.00 | 0.00 | 0.00 | 46 | 1015.6 |
| 20260504033502 | 58 | 173 | 0.0 | 2.0 | 0.00 | 0.00 | 0.00 | 45 | 1014.0 |
| 20260504033059 | 59 | 173 | 0.0 | 1.0 | 0.00 | 0.00 | 0.00 | 45 | 1015.6 |
| 20260504033021 | 59 | 173 | 0.0 | 1.0 | 0.00 | 0.00 | 0.00 | 44 | 1014.0 |
| 20260504032553 | 60 | 173 | 0.0 | 2.0 | 0.00 | 0.00 | 0.00 | 44 | 1015.5 |
| 20260504032501 | 60 | 173 | 0.0 | 2.0 | 0.00 | 0.00 | 0.00 | 43 | 1013.9 |
| 20260504032047 | 61 | 173 | 0.0 | 3.0 | 0.00 | 0.00 | 0.00 | 43 | 1015.5 |
| 20260504032003 | 60 | 173 | 0.0 | 3.0 | 0.00 | 0.00 | 0.00 | 42 | 1013.9 |
| 20260504031803 | 62 | 173 | 0.0 | 3.0 | 0.00 | 0.00 | 0.00 | 42 | 1015.3 |
| 20260504031506 | 61 | 173 | 0.0 | 3.0 | 0.00 | 0.00 | 0.00 | 41 | 1013.9 |
| 20260504031304 | 62 | 173 | 0.0 | 1.0 | 0.00 | 0.00 | 0.00 | 41 | 1015.3 |
| 20260504031005 | 62 | 173 | 0.0 | 2.0 | 0.00 | 0.00 | 0.00 | 41 | 1013.9 |
| 20260504030529 | 63 | 173 | 0.0 | 2.0 | 0.00 | 0.00 | 0.00 | 41 | 1015.3 |
| 20260504030502 | 62 | 173 | 0.0 | 2.0 | 0.00 | 0.00 | 0.00 | 40 | 1013.9 |
| 20260504030245 | 63 | 173 | 0.0 | 2.0 | 0.00 | 0.00 | 0.00 | 39 | 1015.3 |
| 20260504030004 | 63 | 173 | 0.0 | 2.0 | 0.00 | 0.00 | 0.00 | 38 | 1013.8 |
| 20260504025517 | 64 | 173 | 0.0 | 2.0 | 0.00 | 0.00 | 0.00 | 38 | 1015.3 |
| 20260504025503 | 64 | 173 | 0.0 | 2.0 | 0.00 | 0.00 | 0.00 | 38 | 1013.9 |
| 20260504025010 | 65 | 173 | 0.0 | 2.0 | 0.00 | 0.00 | 0.00 | 38 | 1015.3 |
| 20260504025004 | 64 | 173 | 0.0 | 2.0 | 0.00 | 0.00 | 0.00 | 38 | 1013.8 |
| 20260504024511 | 65 | 173 | 0.0 | 2.0 | 0.00 | 0.00 | 0.00 | 36 | 1013.8 |
| 20260504024007 | 66 | 173 | 0.0 | 3.0 | 0.00 | 0.00 | 0.00 | 37 | 1013.8 |
| 20260504023959 | 66 | 173 | 0.0 | 3.0 | 0.00 | 0.00 | 0.00 | 38 | 1015.2 |
| 20260504023504 | 66 | 173 | 0.0 | 3.0 | 0.00 | 0.00 | 0.00 | 37 | 1013.8 |
| 20260504023454 | 67 | 173 | 0.0 | 3.0 | 0.00 | 0.00 | 0.00 | 37 | 1015.2 |
| 20260504023207 | 67 | 152 | 0.0 | 1.0 | 0.00 | 0.00 | 0.00 | 36 | 1015.2 |
| 20260504023003 | 67 | 152 | 0.0 | 1.0 | 0.00 | 0.00 | 0.00 | 35 | 1013.8 |
| 20260504022706 | 68 | 152 | 0.0 | 3.0 | 0.00 | 0.00 | 0.00 | 34 | 1015.2 |
| 20260504022503 | 68 | 152 | 0.0 | 3.0 | 0.00 | 0.00 | 0.00 | 33 | 1013.8 |
| 20260504022007 | 68 | 152 | 0.0 | 3.0 | 0.00 | 0.00 | 0.00 | 33 | 1013.9 |
| 20260504021935 | 69 | 152 | 0.0 | 3.0 | 0.00 | 0.00 | 0.00 | 33 | 1015.2 |
| 20260504021516 | 69 | 152 | 0.0 | 2.0 | 0.00 | 0.00 | 0.00 | 33 | 1013.9 |
| 20260504021429 | 69 | 152 | 0.0 | 2.0 | 0.00 | 0.00 | 0.00 | 34 | 1015.2 |
| 20260504021002 | 69 | 152 | 0.0 | 3.0 | 0.00 | 0.00 | 0.00 | 32 | 1013.9 |
| 20260504020923 | 70 | 152 | 1.0 | 3.0 | 0.00 | 0.00 | 0.00 | 33 | 1015.3 |
| 20260504020642 | 70 | 148 | 1.0 | 3.0 | 0.00 | 0.00 | 0.00 | 31 | 1015.5 |
| 20260504020502 | 70 | 148 | 0.0 | 3.0 | 0.00 | 0.00 | 0.00 | 30 | 1013.9 |
| 20260504020004 | 69 | 165 | 0.0 | 3.0 | 0.00 | 0.00 | 0.00 | 31 | 1013.9 |
| 20260504015911 | 70 | 165 | 1.0 | 3.0 | 0.00 | 0.00 | 0.00 | 32 | 1015.3 |
| 20260504015502 | 69 | 156 | 1.0 | 4.0 | 0.00 | 0.00 | 0.00 | 30 | 1014.0 |
| 20260504015405 | 70 | 156 | 1.0 | 4.0 | 0.00 | 0.00 | 0.00 | 30 | 1015.5 |
| 20260504015003 | 70 | 188 | 0.0 | 4.0 | 0.00 | 0.00 | 0.00 | 30 | 1013.9 |
| 20260504014859 | 71 | 189 | 1.0 | 4.0 | 0.00 | 0.00 | 0.00 | 30 | 1015.3 |
| 20260504014624 | 71 | 170 | 1.0 | 4.0 | 0.00 | 0.00 | 0.00 | 31 | 1015.3 |
| 20260504014503 | 70 | 170 | 0.0 | 4.0 | 0.00 | 0.00 | 0.00 | 31 | 1013.9 |
| 20260504014005 | 70 | 200 | 0.0 | 4.0 | 0.00 | 0.00 | 0.00 | 30 | 1013.9 |
| 20260504013847 | 71 | 200 | 1.0 | 5.0 | 0.00 | 0.00 | 0.00 | 30 | 1015.5 |
| 20260504013502 | 70 | 200 | 0.0 | 5.0 | 0.00 | 0.00 | 0.00 | 30 | 1014.0 |
| 20260504013341 | 71 | 200 | 1.0 | 5.0 | 0.00 | 0.00 | 0.00 | 30 | 1015.5 |
| 20260504013006 | 71 | 196 | 1.0 | 5.0 | 0.00 | 0.00 | 0.00 | 30 | 1013.9 |
| 20260504012835 | 71 | 165 | 1.0 | 3.0 | 0.00 | 0.00 | 0.00 | 31 | 1015.5 |
| 20260504012504 | 71 | 224 | 1.0 | 4.0 | 0.00 | 0.00 | 0.00 | 28 | 1014.0 |
| 20260504012330 | 71 | 132 | 2.0 | 4.0 | 0.00 | 0.00 | 0.00 | 30 | 1015.5 |
| 20260504012004 | 70 | 305 | 1.0 | 4.0 | 0.00 | 0.00 | 0.00 | 29 | 1014.0 |
| 20260504011824 | 71 | 276 | 1.0 | 4.0 | 0.00 | 0.00 | 0.00 | 29 | 1015.6 |
| 20260504011504 | 71 | 293 | 1.0 | 4.0 | 0.00 | 0.00 | 0.00 | 28 | 1014.0 |
| 20260504011317 | 71 | 325 | 1.0 | 4.0 | 0.00 | 0.00 | 0.00 | 28 | 1015.6 |
| 20260504011003 | 71 | 91 | 0.0 | 4.0 | 0.00 | 0.00 | 0.00 | 29 | 1014.1 |
| 20260504010811 | 71 | 265 | 1.0 | 4.0 | 0.00 | 0.00 | 0.00 | 29 | 1015.6 |
| 20260504010505 | 71 | 313 | 1.0 | 4.0 | 0.00 | 0.00 | 0.00 | 28 | 1014.1 |
| 20260504010305 | 72 | 114 | 2.0 | 4.0 | 0.00 | 0.00 | 0.00 | 29 | 1015.7 |
| 20260504010003 | 71 | 109 | 2.0 | 5.0 | 0.00 | 0.00 | 0.00 | 29 | 1014.1 |
| 20260504005759 | 71 | 156 | 2.0 | 5.0 | 0.00 | 0.00 | 0.00 | 29 | 1015.7 |
| 20260504005504 | 71 | 192 | 1.0 | 5.0 | 0.00 | 0.00 | 0.00 | 29 | 1014.2 |
| 20260504005253 | 72 | 238 | 2.0 | 7.0 | 0.00 | 0.00 | 0.00 | 27 | 1015.7 |
| 20260504005003 | 71 | 121 | 1.0 | 5.0 | 0.00 | 0.00 | 0.00 | 28 | 1014.1 |
| 20260504004747 | 72 | 200 | 2.0 | 7.0 | 0.00 | 0.00 | 0.00 | 29 | 1015.7 |
| 20260504004508 | 71 | 102 | 0.0 | 7.0 | 0.00 | 0.00 | 0.00 | 26 | 1014.2 |
| 20260504004242 | 72 | 165 | 2.0 | 8.0 | 0.00 | 0.00 | 0.00 | 26 | 1015.8 |
| 20260504004003 | 71 | 172 | 2.0 | 8.0 | 0.00 | 0.00 | 0.00 | 25 | 1014.3 |